IK5NLA Vaiano IT current weather conditions

sailwx.info

Wind from 213 at 11 knots

Air temperature 13.3° C
Dewpoint 12.7° C

Last reported at 2016-May-29 22:51 UTC.
Time now 2016-May-29 23:04 UTC

Location: N 43°58' E 011°06'.
View on Google Maps.

See reports from other nearby stations

  
Tides and Currents Weather Stations Pressure Air Temp Water Temp Dewpoint Dewpoint Depression Visibility Wind Speed Wind Dir Waves Ship Positions
date/time (UTC)wind fromknots sea level pressurealtimeterstation pressurevisibilityair tempwater tempwave heightnotes
2016-May-29 22:51 213 11 13.3
2016-May-29 22:46 178 12 13.3
2016-May-29 22:41 238 13 13.3
2016-May-29 22:31 234 13 13.3
2016-May-29 22:26 171 12 13.3
2016-May-29 22:16 194 10 13.3
2016-May-29 22:06 178 12 13.3
2016-May-29 22:01 214 11 13.3
2016-May-29 21:51 242 10 13.3
2016-May-29 21:41 232 11 13.3
2016-May-29 21:36 211 12 13.3
2016-May-29 21:31 241 13 13.3
2016-May-29 21:26 225 12 13.3
2016-May-29 21:16 203 13 13.3
2016-May-29 21:06 186 11 13.3
2016-May-29 20:51 213 12 13.3
2016-May-29 20:41 186 13 13.3
2016-May-29 20:36 215 13 13.3
2016-May-29 20:26 184 12 13.3
2016-May-29 20:21 182 13 13.3
2016-May-29 20:16 198 13 13.3
2016-May-29 20:11 186 14 13.3
2016-May-29 20:06 165 13 13.3
2016-May-29 19:41 245 12 13.9
2016-May-29 19:36 195 11 13.9
2016-May-29 19:31 179 12 13.9
2016-May-29 19:26 202 11 13.9
2016-May-29 19:21 206 9 13.9
2016-May-29 19:11 250 10 13.9
2016-May-29 19:06 205 8 13.9
2016-May-29 18:56 298 7 14.4
2016-May-29 18:51 197 9 14.4
2016-May-29 18:47 213 8 14.4
2016-May-29 18:36 242 8 14.4
2016-May-29 18:31 195 7 15.0
2016-May-29 18:26 164 7 15.0
2016-May-29 18:21 221 7 15.0
2016-May-29 18:11 207 5 15.0
2016-May-29 18:06 153 5 15.0
2016-May-29 17:56 239 6 15.6
2016-May-29 17:51 207 7 15.6
2016-May-29 17:46 231 6 15.6
2016-May-29 17:41 180 7 15.6
2016-May-29 17:36 273 8 15.6
2016-May-29 17:31 150 8 15.6
2016-May-29 17:21 167 8 15.6
2016-May-29 17:16 158 8 15.6
2016-May-29 17:11 182 7 15.6
2016-May-29 17:06 190 8 15.6
2016-May-29 17:01 184 10 15.6
2016-May-29 16:56 200 12 15.6
2016-May-29 16:51 190 13 15.6
2016-May-29 16:46 184 12 15.6
2016-May-29 16:31 205 10 15.6
2016-May-29 16:26 220 10 15.6
2016-May-29 16:21 231 10 15.6
2016-May-29 16:11 214 6 16.1
2016-May-29 16:06 227 7 16.1
2016-May-29 16:01 240 9 16.1
2016-May-29 15:56 226 8 16.1
2016-May-29 15:51 172 6 16.1
2016-May-29 15:46 194 7 16.1
2016-May-29 15:41 278 4 16.1
2016-May-29 15:36 273 3 16.1
2016-May-29 15:21 260 6 16.1
2016-May-29 15:16 189 6 16.1
2016-May-29 15:11 188 4 16.1
2016-May-29 15:07 290 5 16.1
2016-May-29 14:56 344 6 16.1
2016-May-29 14:46 179 9 16.1
2016-May-29 14:41 186 7 15.6
2016-May-29 14:36 182 6 15.6
2016-May-29 14:31 167 6 15.6
2016-May-29 14:26 176 4 15.6
2016-May-29 14:21 172 3 15.6
2016-May-29 14:16 106 3 15.6
2016-May-29 14:11 130 3 15.6
2016-May-29 14:06 136 3 15.6
2016-May-29 14:01 160 3 15.0
2016-May-29 13:56 054 2 15.0
2016-May-29 13:51 076 2 15.6
2016-May-29 13:41 171 6 15.6
2016-May-29 13:36 257 6 16.1
2016-May-29 13:31 234 3 16.1
2016-May-29 13:26 103 2 16.1
2016-May-29 13:16 202 3 16.7
2016-May-29 13:06 183 1 16.7
2016-May-29 13:01 205 1 17.2
2016-May-29 12:56 192 1 17.2
2016-May-29 12:46 193 2 17.2
2016-May-29 12:41 213 2 16.7
2016-May-29 12:36 217 0 16.7
2016-May-29 12:26 164 16.1
2016-May-29 12:21 180 0 16.7
2016-May-29 12:16 220 1 16.1
2016-May-29 12:06 252 1 15.6
2016-May-29 11:56 191 2 15.6
2016-May-29 11:51 209 2 15.0
2016-May-29 11:46 222 1 15.0
2016-May-29 11:41 222 1 15.0
2016-May-29 11:36 229 0 15.0
2016-May-29 11:21 218 15.6
2016-May-29 11:16 203 0 15.6
2016-May-29 11:11 260 1 15.6
2016-May-29 11:06 259 2 15.6
2016-May-29 11:01 261 2 15.6
2016-May-29 10:56 236 1 15.6
2016-May-29 10:51 254 0 15.6
2016-May-29 10:41 199 15.0
2016-May-29 10:06 240 0 15.0
2016-May-29 10:01 248 1 15.0
2016-May-29 09:56 351 3 14.4
2016-May-29 09:51 333 3 14.4
2016-May-29 09:41 360 2 14.4
2016-May-29 09:36 355 1 14.4
2016-May-29 09:31 068 0 14.4
2016-May-29 09:26 212 14.4
2016-May-29 09:21 211 14.4
2016-May-29 09:11 103 0 14.4
2016-May-29 08:41 256 7 15.6
2016-May-29 08:31 248 7 17.2
2016-May-29 08:26 254 1 18.3
2016-May-29 08:16 195 18.9
2016-May-29 08:11 117 18.9
2016-May-29 08:01 076 0 18.3
2016-May-29 07:56 072 1 18.3
2016-May-29 07:51 067 1 18.3
2016-May-29 07:46 134 2 18.9
2016-May-29 07:41 177 1 18.9
2016-May-29 07:36 194 0 18.3
2016-May-29 07:31 326 0 17.8
2016-May-29 07:26 349 1 17.2
2016-May-29 07:16 360 1 17.2
2016-May-29 07:06 069 0 18.3
2016-May-29 07:01 118 0 18.3
2016-May-29 06:56 074 1 16.7
2016-May-29 06:41 048 1 16.7
2016-May-29 06:36 107 1 17.8
2016-May-29 06:26 267 6 16.7
2016-May-29 06:21 259 8 17.2
2016-May-29 06:12 227 2 17.8
2016-May-29 06:06 234 0 17.8
2016-May-29 06:01 171 17.8
2016-May-29 05:56 113 17.8
2016-May-29 05:51 110 17.2
2016-May-29 05:46 030 16.7
2016-May-29 05:41 024 16.7
2016-May-29 05:31 040 16.1
2016-May-29 05:26 042 16.1
2016-May-29 05:16 042 16.1
2016-May-29 05:11 042 16.1
2016-May-29 05:06 042 16.7
2016-May-29 04:46 223 0 17.8
2016-May-29 04:41 315 0 17.8
2016-May-29 04:36 331 0 17.8
2016-May-29 04:31 331 0 17.2
2016-May-29 04:26 342 0 17.2
2016-May-29 04:21 338 1 17.2
2016-May-29 04:11 336 0 17.2
2016-May-29 04:06 050 17.2
2016-May-29 04:01 311 17.2
2016-May-29 03:51 311 0 17.2
2016-May-29 03:46 281 0 17.2
2016-May-29 03:31 263 17.2
2016-May-29 03:26 336 17.8
2016-May-29 03:21 336 0 17.8
2016-May-29 03:06 326 0 18.3
2016-May-29 03:01 327 18.3
2016-May-29 02:41 052 17.8
2016-May-29 02:31 313 1 18.3
2016-May-29 02:26 288 2 18.3
2016-May-29 02:16 317 1 17.8
2016-May-29 02:06 330 1 17.8
2016-May-29 01:56 314 0 18.3
2016-May-29 01:51 303 0 17.8
2016-May-29 01:36 326 1 16.7
2016-May-29 01:21 355 0 16.7
2016-May-29 01:06 329 17.8
2016-May-29 01:01 085 17.8
2016-May-29 00:51 263 3 18.9
2016-May-29 00:41 259 5 17.8
2016-May-29 00:36 318 6 17.8
2016-May-29 00:31 331 5 17.2
2016-May-29 00:21 360 3 17.2
2016-May-29 00:16 355 3 17.2
2016-May-29 00:11 348 3 17.2
2016-May-29 00:06 338 3 17.2
2016-May-28 23:56 331 4 16.7
2016-May-28 23:36 323 3 16.7
2016-May-28 23:31 319 2 16.7
2016-May-28 23:26 325 2 16.7
2016-May-28 23:11 355 0 16.1
2016-May-28 23:01 334 0 16.7
2016-May-28 22:56 331 16.7
2016-May-28 22:41 339 17.2
2016-May-28 22:31 339 17.2
2016-May-28 22:26 339 17.2
2016-May-28 22:21 339 17.2
2016-May-28 22:11 338 17.2
2016-May-28 22:06 336 17.2
2016-May-28 22:01 336 17.2
2016-May-28 21:56 336 17.2
2016-May-28 21:51 336 17.2
2016-May-28 21:42 336 17.2
2016-May-28 21:36 336 17.2
2016-May-28 21:26 336 17.8
2016-May-28 21:16 336 17.8
2016-May-28 21:06 336 17.8
2016-May-28 21:01 336 17.8
2016-May-28 20:57 344 17.8
2016-May-28 20:46 057 17.8
2016-May-28 20:36 056 18.9
2016-May-28 20:26 284 1 19.4
2016-May-28 20:21 267 3 19.4
2016-May-28 20:11 271 4 18.9
2016-May-28 20:06 273 4 18.9
2016-May-28 20:01 304 4 18.9
2016-May-28 19:46 257 4 19.4
2016-May-28 19:36 269 2 20.0
2016-May-28 19:26 256 1 20.0
2016-May-28 19:21 227 2 20.0
2016-May-28 19:16 284 2 20.0
2016-May-28 19:06 265 3 19.4
2016-May-28 19:01 274 4 19.4
2016-May-28 18:56 249 4 20.0
2016-May-28 18:51 267 4 20.0
2016-May-28 18:46 238 3 20.0
2016-May-28 18:36 223 3 20.0
2016-May-28 18:31 254 3 20.0
2016-May-28 18:26 222 3 20.0
2016-May-28 18:16 240 6 20.6
2016-May-28 18:06 244 4 20.6
2016-May-28 18:01 283 4 20.6
2016-May-28 17:51 243 5 21.1
2016-May-28 17:46 245 4 21.1
2016-May-28 17:36 265 2 21.1
2016-May-28 17:31 269 0 21.1
2016-May-28 17:26 232 21.1
2016-May-28 17:21 336 21.1
2016-May-28 17:06 219 0 21.7
2016-May-28 16:56 267 2 22.2
2016-May-28 16:46 259 3 22.2
2016-May-28 16:41 275 4 22.2
2016-May-28 16:31 272 3 22.2
2016-May-28 16:21 265 4 22.8
2016-May-28 16:01 236 4 23.3
2016-May-28 15:56 223 4 23.3
2016-May-28 15:51 223 4 23.3
2016-May-28 15:41 250 2 23.9
2016-May-28 15:26 192 4 24.4
2016-May-28 15:21 242 4 24.4
2016-May-28 15:06 169 5 24.4
2016-May-28 14:56 251 6 25.0
2016-May-28 14:46 252 6 25.0
2016-May-28 14:31 233 6 25.0
2016-May-28 14:21 269 5 25.0
2016-May-28 14:16 295 4 25.0
2016-May-28 14:11 264 3 25.0
2016-May-28 14:06 211 4 25.0
2016-May-28 14:01 187 5 25.0
2016-May-28 13:51 227 2 26.1
2016-May-28 13:41 252 4 25.0
2016-May-28 13:21 220 3 25.6
2016-May-28 13:16 227 2 25.6
2016-May-28 13:11 264 3 25.0
2016-May-28 13:01 213 2 25.0
2016-May-28 12:46 249 2 25.0
2016-May-28 12:36 194 3 24.4
2016-May-28 12:31 267 2 24.4
2016-May-28 12:21 247 3 24.4
2016-May-28 12:11 229 5 24.4
2016-May-28 12:06 230 4 24.4
2016-May-28 12:01 250 3 24.4
2016-May-28 11:56 186 1 25.0
2016-May-28 11:51 267 1 25.0
2016-May-28 11:46 219 3 24.4
2016-May-28 11:26 146 2 24.4
2016-May-28 11:16 264 3 24.4
2016-May-28 11:11 210 1 24.4
2016-May-28 10:56 221 1 23.9
2016-May-28 10:51 241 2 23.9
2016-May-28 10:31 232 2 23.9
2016-May-28 10:26 236 2 23.9
2016-May-28 10:21 167 2 23.9
2016-May-28 10:16 199 2 23.3
2016-May-28 10:11 205 3 23.3
2016-May-28 10:01 230 3 23.3
2016-May-28 09:56 215 3 23.9
2016-May-28 09:51 263 4 23.3
2016-May-28 09:41 275 3 23.3
2016-May-28 09:36 259 4 22.8
2016-May-28 09:31 221 3 23.3
2016-May-28 09:26 208 3 23.3
2016-May-28 09:21 183 4 23.3
2016-May-28 09:16 203 4 22.8
2016-May-28 09:11 160 3 23.3
2016-May-28 08:56 195 2 22.8
2016-May-28 08:51 159 1 23.3
2016-May-28 08:46 173 0 23.3
2016-May-28 08:41 159 0 22.8
2016-May-28 08:31 159 1 22.2
2016-May-28 08:16 118 1 22.8
2016-May-28 08:11 167 1 22.2
2016-May-28 08:06 157 1 22.8
2016-May-28 07:56 156 1 22.8
2016-May-28 07:36 200 22.8
2016-May-28 07:26 137 0 22.2
2016-May-28 07:16 092 0 21.7
2016-May-28 06:57 088 0 21.1
2016-May-28 06:51 084 0 21.1
2016-May-28 06:41 117 21.7
2016-May-28 06:36 110 0 21.1
2016-May-28 06:31 108 21.1
2016-May-28 06:21 110 21.7
2016-May-28 06:06 091 21.1
2016-May-28 06:01 071 21.1
2016-May-28 05:56 071 21.7
2016-May-28 05:51 057 21.7
2016-May-28 05:41 056 21.1
2016-May-28 05:26 056 20.6
2016-May-28 05:21 056 20.0
2016-May-28 05:16 311 19.4
2016-May-28 05:11 311 19.4
2016-May-28 05:06 311 19.4
2016-May-28 04:56 311 19.4
2016-May-28 04:51 311 19.4
2016-May-28 04:41 310 18.9
2016-May-28 04:36 300 18.9
2016-May-28 04:31 301 1 18.3
2016-May-28 04:21 311 1 17.8
2016-May-28 04:11 336 3 18.3
2016-May-28 04:06 333 3 18.3
2016-May-28 04:01 341 3 18.3
2016-May-28 03:26 005 2 18.3
2016-May-28 02:56 355 3 18.3
2016-May-28 02:46 355 3 18.3
2016-May-28 02:41 346 3 18.3
2016-May-28 02:36 328 3 18.3
2016-May-28 02:31 341 3 17.8
2016-May-28 02:21 360 3 17.8
2016-May-28 02:16 349 3 17.8
2016-May-28 02:11 337 2 17.8
2016-May-28 02:01 340 2 17.8
2016-May-28 01:56 360 2 17.8
2016-May-28 01:46 333 2 18.3
2016-May-28 01:41 009 2 18.3
2016-May-28 01:36 345 2 18.3
2016-May-28 01:31 350 2 18.9
2016-May-28 01:26 360 2 18.9
2016-May-28 01:16 350 1 18.3
2016-May-28 01:11 336 1 18.3
2016-May-28 01:06 021 1 18.3
2016-May-28 01:01 005 1 18.3
2016-May-28 00:56 350 1 17.8
2016-May-28 00:51 340 1 17.8
2016-May-28 00:46 360 1 17.8
2016-May-28 00:31 337 0 17.8
2016-May-28 00:21 334 18.3
2016-May-28 00:16 346 18.3
2016-May-28 00:01 335 0 18.3
2016-May-27 23:51 329 17.8
2016-May-27 23:46 328 18.3
2016-May-27 23:41 329 18.3
2016-May-27 23:26 321 17.8
2016-May-27 23:21 322 17.8